Weather History for Riverton, WY

Change the Weather History Date:

Thursday, March 7, 2013

  Actual Average Record
Temperature  
Mean Temperature 39 °F 32 °F  
Max Temperature 50 °F 44 °F 60 °F (2007)
Min Temperature 28 °F 20 °F 0 °F (1998)
Degree Days  
Heating Degree Days 26 33  
Month to date heating degree days 220 238  
Since 1 July heating degree days 5786 6092  
Cooling Degree Days 0 0  
Month to date cooling degree days 0 0  
Year to date cooling degree days 0 0  
Moisture  
Dew Point 17 °F    
Average Humidity 43    
Maximum Humidity 64    
Minimum Humidity 21    
Precipitation  
Precipitation 0.00 in 0.02 in 0.04 in (2014)
Month to date precipitation 0.01 0.09  
Year to date precipitation 0.66 0.60  
Snow  
Snow 0.00 in - - ()
Month to date snowfall 0.1  
Since 1 July snowfall 18.9  
Snow Depth 0.00 in    
Sea Level Pressure  
Sea Level Pressure 29.90 in    
Wind  
Wind Speed 9 mph (WSW)    
Max Wind Speed 25 mph    
Max Gust Speed 31 mph    
Visibility 10 miles    
Events      
T = Trace of Precipitation, MM = Missing Value Source: NWS Daily Summary

Daily Weather History Graph

Daily Weather History Graph

Search for Another Location

Airport:

Trip Planner

Search our weather history database for the weather conditions in past years. The results will help you decide how hot, cold, wet, or windy it might be!

Date:

Astronomy

Mar. 07, 2013 Rise Set
Actual Time 6:39 AM MST 6:10 PM MST
Civil Twilight 6:10 AM MST 6:39 PM MST
Nautical Twilight 5:38 AM MST 7:12 PM MST
Astronomical Twilight 5:04 AM MST 7:45 PM MST
Moon 3:47 AM MST (3/7) 1:57 PM MST (3/7)
Length of Visible Light 12h 28m
Length of Day
11h 31m
Waning Crescent, 19% of the Moon is Illuminated
Mar 7
Waning Crescent
Mar 11
New
Mar 19
First Quarter
Mar 27
Full
Apr 2
Last Quarter

Hourly Weather History & Observations

Time (MST) Temp. Windchill Dew Point Humidity Pressure Visibility Wind Dir Wind Speed Gust Speed Precip Events Conditions
12:53 AM 39.0 °F 29.3 °F 21.9 °F 50% 29.81 in 10.0 mi WNW 19.6 mph - N/A   Overcast
1:53 AM 37.9 °F 27.1 °F 17.1 °F 43% 29.82 in 10.0 mi NW 23.0 mph 28.8 mph N/A   Overcast
2:53 AM 36.0 °F 26.0 °F 16.0 °F 44% 29.82 in 10.0 mi WNW 17.3 mph - N/A   Mostly Cloudy
3:53 AM 33.1 °F 23.0 °F 15.1 °F 48% 29.83 in 10.0 mi NW 15.0 mph - N/A   Clear
4:53 AM 32.0 °F 24.2 °F 12.9 °F 45% 29.87 in 10.0 mi WSW 9.2 mph - N/A   Clear
5:53 AM 30.0 °F 24.1 °F 12.9 °F 49% 29.92 in 10.0 mi East 5.8 mph - N/A   Clear
6:53 AM 30.9 °F 26.2 °F 18.0 °F 59% 29.94 in 10.0 mi SW 4.6 mph - N/A   Clear
7:53 AM 33.1 °F 26.9 °F 10.0 °F 38% 29.96 in 10.0 mi West 6.9 mph - N/A   Clear
8:53 AM 36.0 °F 28.0 °F 8.1 °F 31% 29.95 in 10.0 mi West 11.5 mph - N/A   Clear
9:53 AM 41.0 °F 34.7 °F 8.1 °F 26% 29.94 in 10.0 mi WNW 10.4 mph - N/A   Clear
10:53 AM 44.1 °F 40.1 °F 10.9 °F 26% 29.93 in 10.0 mi West 6.9 mph - N/A   Clear
11:53 AM 46.0 °F 44.8 °F 10.0 °F 23% 29.92 in 10.0 mi North 3.5 mph - N/A   Clear
12:53 PM 48.0 °F - 10.9 °F 22% 29.89 in 10.0 mi Variable 3.5 mph - N/A   Clear
1:53 PM 48.0 °F - 14.0 °F 26% 29.87 in 10.0 mi ESE 5.8 mph - N/A   Clear
2:53 PM 48.9 °F - 19.0 °F 31% 29.87 in 10.0 mi East 8.1 mph - N/A   Clear
3:53 PM 48.9 °F - 21.9 °F 35% 29.88 in 10.0 mi ENE 6.9 mph - N/A   Clear
4:53 PM 48.0 °F - 24.1 °F 39% 29.89 in 10.0 mi South 8.1 mph - N/A   Clear
5:53 PM 45.0 °F 40.6 °F 24.1 °F 44% 29.92 in 10.0 mi SSE 8.1 mph - N/A   Clear
6:53 PM 42.1 °F 37.7 °F 25.0 °F 51% 29.94 in 10.0 mi South 6.9 mph - N/A   Clear
7:53 PM 42.1 °F 37.1 °F 21.9 °F 45% 29.94 in 10.0 mi SSW 8.1 mph - N/A   Clear
8:53 PM 42.1 °F - 21.0 °F 43% 29.93 in 10.0 mi Calm Calm - N/A   Partly Cloudy
9:53 PM 37.9 °F 32.1 °F 21.9 °F 53% 29.93 in 10.0 mi ENE 8.1 mph - N/A   Mostly Cloudy
10:53 PM 37.9 °F 30.5 °F 24.1 °F 57% 29.91 in 10.0 mi ENE 11.5 mph - N/A   Overcast
11:53 PM 37.9 °F 31.5 °F 21.0 °F 51% 29.90 in 10.0 mi ENE 9.2 mph - N/A   Overcast